Regional Weather Roundup
Issued by NWS Upton, NY

Current Version | Previous Version | Text Only | Print | Product List | Glossary Off
Versions: 1 2 3 4 5 6 7 8 9 10 11 12 13 14 15 16 17 18 19 20 21 22 23 24 25 26 27
000 ASUS41 KOKX 211005 RWROKX Regional Weather Roundup National Weather Service New York NY 500 AM EST WED FEB 21 2018 Note: "FAIR" indicates few or no clouds below 12,000 feet with no significant weather and/or obstructions to visibility. NYZ071-072-176-178-NJZ106-104-211100- New York City Metro Area CITY SKY/WX TMP DP RH WIND PRES REMARKS Central Park CLOUDY 56 53 90 CALM 30.32S Bronx Bot Gard N/A 50 48 93 SE3 30.32R Bronx Lehman C N/A 52 50 93 SE3 N/A LaGuardia Arpt CLOUDY 50 49 96 S6 30.30S FOG Queens College N/A 48 48 100 S5 N/A Kennedy Intl FOG 44 44 100 CALM 30.33R VSB 1/8 Breezy Point N/A 43 N/A N/A CALM N/A Brooklyn Coll N/A 46 46 100 NE2 N/A Staten Island N/A 59 57 94 SW5 N/A Newark/Liberty CLOUDY 61 59 93 SW12 30.29F Teterboro CLOUDY 55 54 96 CALM 30.28F FOG $$ NYZ177-179-078>081-211100- Long Island New York CITY SKY/WX TMP DP RH WIND PRES REMARKS Jones Beach N/A 43 N/A N/A SW6 N/A Wantagh N/A 45 45 100 SW8 N/A Hempstead N/A 48 48 100 S7 30.35S Matinecock Pt N/A 54 N/A N/A S6G12 N/A Farmingdale FOG 48 48 100 SW9 30.32R VSB 1/4 MacArthur/ISP FOG 50 50 100 SW14 30.32R VSB 1/2 Shirley FOG 50 50 100 SW9 30.33R VSB 1/4 Mt Sinai Harb N/A N/A N/A N/A W2G8 N/A Westhampton FOG 49 49 100 SW10 30.33S VSB 1/2 East Hampton FOG 49 49 100 SW8 30.31S VSB 1/2 Southold N/A 52 52 100 SW2 N/A Montauk N/A 48 48 100 SW9G18 30.33S $$ NYZ052-065-067-211100- Hudson Valley CITY SKY/WX TMP DP RH WIND PRES REMARKS White Plains FOG 54 54 100 CALM 30.28F VSB 1/4 Larchmont Harb N/A 45 N/A N/A S10 N/A Croton On Huds N/A 52 N/A N/A SE5 N/A Somers N/A 57 57 100 S6 N/A Brewster N/A 54 54 100 S2 N/A Newburgh NOT AVBL Montgomery FOG 38 38 100 CALM 30.24F VSB 1/2 Otisville N/A 54 54 100 SW3 N/A Warwick N/A 52 52 100 S2 N/A Suffern N/A 57 57 100 SW6 N/A Poughkeepsie CLOUDY 42 40 92 CALM 30.25S Albany FAIR 56 52 86 S9 30.18F $$ NJZ001-105-106-008-010-013-015-019>022-104-211100- New Jersey CITY SKY/WX TMP DP RH WIND PRES REMARKS Newark/Liberty CLOUDY 61 59 93 SW12 30.29F Teterboro CLOUDY 55 54 96 CALM 30.28F FOG Caldwell CLOUDY 60 59 96 SW8 30.29S Somerville CLOUDY 52 52 100 CALM 30.28S FOG Linden CLOUDY 61 58 90 W5 30.30S Perth Amboy N/A 59 N/A N/A W9 N/A Sussex FOG 46 46 100 CALM 30.27S VSB 1/2 Andover N/A 56 56 100 S6 30.28R Trenton CLOUDY 60 59 96 SW5 30.31S FOG Millville FOG 56 56 100 VRB3 30.33F VSB 1/2 Atlantic City FOG 54 54 100 S9 30.34F VSB 1/4 Wrightstown FAIR 61 60 95 SW12 30.28F Toms River CLOUDY 59 58 96 S10G17 30.33S FOG Belmar FAIR 61 59 93 SW10 30.32S $$ PAZ047>061-062-071-211100- Eastern Pennsylvania CITY SKY/WX TMP DP RH WIND PRES REMARKS Philadelphia FOG 52 51 97 SW3 30.31F VSB 1 Allentown FOG 42 39 89 CALM 30.29S VSB 1/4 Scranton FAIR 55 53 93 CALM 30.25S $$ CTZ002-004>006-009-010-012-RIZ004-006-007-MAZ004-011-015-211100- Southern New England In CT CITY SKY/WX TMP DP RH WIND PRES REMARKS Bradley Intl FOG 48 48 100 S5 30.27S VSB 1/4 Hartford CLOUDY 53 53 100 S9 30.28S FOG Danbury CLOUDY 58 56 93 S12 30.29S Wtrbury/Oxford LGT RAIN 54 54 100 SW8 30.29F VSB 1/4 Norwalk Harbor N/A 50 N/A N/A SW5 N/A Bridgeport FOG 47 46 97 CALM 30.30S VSB 1/2 Meriden FOG 49 49 100 SE7 30.28F VSB 1/2 New Haven FOG 47 45 93 S5 30.29F VSB 1/4 Chester FOG 54 54 100 SW8 30.29F VSB<1/4 Groton FOG 49 47 93 S3 30.30F VSB 1/4 Willimantic CLOUDY 49 48 97 CALM 30.30R FOG In RI CITY SKY/WX TMP DP RH WIND PRES REMARKS Providence CLOUDY 57 56 96 SW10 30.28F Block Island LGT RAIN 47 47 100 SW17G25 30.31F VSB 1/2 Westerly FOG 50 50 100 SW5 30.32S VSB 1/4 In MA CITY SKY/WX TMP DP RH WIND PRES REMARKS Boston FAIR 52 51 97 SW12 30.23F Worcester FOG 52 32 46 SW16 30.25S VSB 1/2 Westfield FOG 49 49 100 S9 30.25F VSB 1/4 Provincetown LGT RAIN 46 46 100 S13 30.27F VSB 1/2 Nantucket FOG 44 44 100 SW8 30.33S VSB 1/4 $$ ANZ330-335-338-340-345-350-353-355-211100- Coastal Marine Observations STATION/POSITION TIME SKY/WX TEMP WIND PRES VSBY WAVE AIR SEA DIR/SP/G HT/PER (UTC) (F) (DEG/KT/KT) (MB) (MI) (FT/S) NY Harb Entrance 0950 44 41 210/ 12/ 14 1026.1 5/ 6 20 S Fire Island 0950 47 43 210/ 16/ 17 1027.0 4/ 5 15 E Barnegat Li 0930 41 N/A 4/ 5 Hudson Canyon 0950 51 47 210/ 17/ 19 1028.3 5/11 Kings Point 0936 48 38 200/ 10/ 12 1027.0 Execution Rocks NOT AVBL Western LI Sound NOT AVBL Central LI Sound 0930 44 30/ 2/ 4 N/A 1 Robbins Reef 0936 49 120/ 4/ 5 1026.7 $$ >>>>>>>>>>>>>>>>>>>>>>>>>>>> KEY <<<<<<<<<<<<<<<<<<<<<<<<<<< > < > SKY/WX - Sky Condition/Present Weather < > TMP - Temperature in Fahrenheit < > DP - Dew Point in Fahrenheit < > RH - Relative Humidity in Percent < > WIND - Direction (from) and Speed in MPH < > PRES - Mean Sea Level Pressure (inches of Hg) < > WCI - Wind Chill Index < > VSB - Visibility in Miles < > HX - Heat Index < > TC - Temperature in Celsius < > VRB - Varibale Wind Direction < > < >>>>>>>>>>>>>>>>>>>>>>>>>>>> KEY <<<<<<<<<<<<<<<<<<<<<<<<<<<

USA.gov is the U.S. government's official web portal to all federal, state and local government web resources and services.